Theta_e
315 312 312 313 313 315 316 316 317 316 316 315 316 316 316 315 314 311 312 313 314 315 315 315 315 316 320 330 341 345 344 342 339 340 340 341 339 341 337 342 339 332 335 339
312 313 313 314 315 316 316 317 317 317 317 316 316 317 316 314 313 315 315 316 316 315 315 315 315 315 320 325 335 344 344 339 342 341 332 336 343 344 345 345 344 339 338 338
312 313 314 314 314 315 315 315 315 315 316 316 316 318 317 317 315 317 317 317 317 317 316 315 315 315 317 324 331 340 345 343 343 340 340 342 345 345 346 346 346 346 342 340
313 313 314 315 315 314 315 315 316 316 316 317 319 320 318 317 317 315 316 316 317 317 317 316 316 315 316 320 328 333 343 342 341 342 340 345 342 337 346 347 348 346 345 344
316 315 315 315 315 319 320 318 317 317 316 314 317 322 318 317 318 316 316 317 317 318 318 317 316 316 316 320 327 332 339 341 340 335 333 335 340 344 345 347 348 347 347 347
314 314 316 317 319 318 316 316 317 317 316 320 317 318 317 316 316 316 316 316 317 317 318 318 318 317 317 317 324 336 342 341 341 340 336 343 348 345 347 349 348 347 347 344
315 317 316 317 316 315 314 315 317 320 319 321 317 318 317 316 316 316 315 316 317 317 317 318 318 317 317 317 323 334 340 340 340 340 338 347 347 347 348 348 347 347 344 343
317 315 314 315 314 314 312 313 312 319 314 317 318 321 318 315 316 316 317 316 317 317 317 317 317 317 317 317 324 338 340 340 339 337 341 346 346 347 348 347 347 346 344 343
317 316 314 314 314 313 311 312 314 317 317 318 315 314 314 314 314 315 315 316 317 317 318 319 319 317 317 316 323 334 336 340 339 340 341 341 342 345 345 347 346 345 343 341
315 316 315 314 312 313 312 313 313 318 321 320 315 314 314 315 316 315 315 315 317 317 317 317 317 317 317 316 320 333 336 336 343 342 336 337 344 336 334 344 343 343 341 339
314 313 315 314 314 312 311 312 317 317 318 317 318 315 311 314 314 314 314 315 315 316 316 316 317 317 317 316 320 333 337 335 342 340 345 343 337 335 341 343 342 339 338 338
312 313 315 314 313 311 311 314 315 318 320 319 316 317 314 311 313 313 313 314 314 315 316 316 318 319 316 316 317 331 336 336 337 340 345 341 335 335 342 340 341 337 338 332
312 312 314 312 310 312 316 315 316 318 319 319 320 318 314 314 314 314 314 315 316 318 320 317 318 319 317 317 318 327 336 335 337 340 343 343 338 341 341 341 338 338 333 329
312 311 316 316 314 311 312 313 313 315 316 316 317 317 317 316 316 315 315 315 316 316 318 324 320 318 318 317 318 331 338 337 339 341 342 338 338 341 340 339 336 333 329 325
310 313 314 314 313 313 313 314 314 313 315 316 317 317 315 314 314 310 309 311 315 316 317 323 332 330 319 318 323 333 338 337 340 340 341 339 341 340 337 333 330 329 324 320
310 313 314 314 313 313 314 314 310 311 310 311 312 311 309 310 308 309 308 307 309 314 317 328 329 333 332 322 337 337 338 338 340 339 339 340 339 334 333 329 328 324 320 318
313 312 315 313 312 313 315 311 307 308 308 308 309 308 308 307 306 306 305 305 306 309 315 327 329 334 333 333 332 333 334 337 338 335 334 334 333 332 328 325 324 319 319 318
313 314 312 314 315 316 312 307 306 307 307 306 307 308 305 303 303 303 303 303 303 307 312 327 328 330 329 330 330 330 328 327 326 325 330 332 332 329 325 324 319 318 318 318
311 313 314 315 313 312 309 306 305 305 305 306 303 303 302 302 302 303 304 304 304 308 312 328 328 328 328 331 328 328 328 328 323 320 326 324 327 326 322 319 318 317 312 311
311 311 312 312 314 314 306 304 304 304 307 303 301 301 301 301 304 309 313 308 309 311 316 327 327 326 326 326 326 325 326 325 328 327 329 328 326 323 320 318 315 311 311 311
311 309 309 310 311 311 304 304 303 306 305 300 300 299 301 302 305 306 310 311 311 317 328 326 327 325 327 324 324 323 323 323 325 327 325 323 323 320 318 314 310 310 310 309
312 312 308 309 308 311 305 304 303 301 299 299 298 299 300 303 309 317 313 314 324 325 323 327 326 324 323 325 326 326 325 322 323 323 322 321 318 315 312 310 309 308 307 306
312 311 310 307 308 307 305 301 300 299 298 298 298 302 305 317 322 324 326 326 327 327 325 324 324 322 322 324 324 320 319 321 321 321 318 317 314 312 311 309 306 306 306 306
310 308 308 307 305 304 302 300 299 298 298 299 303 306 323 323 324 325 321 324 322 323 322 322 321 319 318 319 322 325 321 320 320 317 315 313 311 309 307 306 306 306 306 305
306 306 307 305 304 301 302 300 298 299 300 303 306 310 320 323 323 323 322 322 319 318 318 319 318 318 317 320 317 321 322 319 316 313 312 311 309 308 307 307 306 305 303 301
305 302 305 305 302 300 299 299 299 299 300 303 303 309 318 320 319 320 319 318 318 319 321 320 318 316 315 317 317 318 317 315 312 312 311 309 309 308 308 307 306 304 302 295
Wind_Speed
13 2 7 13 13 17 16 18 21 20 17 10 18 21 18 14 16 14 22 31 24 25 29 24 19 19 10 17 30 36 41 40 42 36 26 23 26 23 23 21 23 30 25 23
4 7 14 14 15 16 20 21 23 24 20 18 16 24 20 6 10 20 22 31 34 29 28 24 22 18 15 17 27 44 41 40 43 41 42 32 28 26 20 21 22 23 22 24
7 11 12 13 12 13 13 12 14 19 9 9 13 30 17 16 12 23 30 31 34 35 37 31 31 21 17 24 29 34 44 43 44 40 44 39 32 28 21 27 25 23 26 26
11 8 11 14 16 13 19 11 17 20 15 12 7 21 19 9 19 17 24 30 34 35 36 35 34 28 22 25 31 32 46 46 47 48 46 47 46 35 34 36 30 31 28 25
7 16 15 10 8 4 7 14 12 7 9 8 11 8 27 11 16 16 17 27 33 34 34 35 32 26 24 21 33 38 45 47 46 55 44 44 40 39 38 39 34 34 29 27
12 24 5 6 3 3 5 6 8 4 4 10 8 13 28 12 14 17 15 25 32 31 34 38 35 30 31 22 32 42 50 49 52 52 50 45 43 44 42 39 39 38 33 29
13 6 5 4 4 2 2 3 4 3 0 9 4 12 20 8 10 13 14 25 35 36 35 34 37 40 33 25 30 45 50 50 49 51 54 49 48 45 45 44 42 40 34 29
3 9 5 2 10 8 10 8 4 5 3 7 1 7 6 10 14 24 26 27 31 28 33 38 40 37 42 32 28 48 55 55 53 52 60 54 47 43 41 45 43 37 33 27
4 8 16 20 22 4 5 3 6 6 12 9 4 7 10 15 13 11 18 18 21 19 29 36 35 35 38 33 31 40 51 55 59 59 58 54 47 45 38 41 42 39 33 28
6 14 11 11 7 10 10 5 1 2 4 5 5 7 8 5 4 6 8 5 12 20 16 16 29 26 28 30 31 39 52 56 56 57 50 44 54 47 45 47 41 36 31 27
6 7 11 9 7 6 2 2 3 3 4 4 4 5 7 8 7 8 8 16 16 21 21 21 15 22 23 32 33 41 52 51 49 55 49 48 51 64 61 51 39 32 29 25
2 4 7 10 22 11 10 10 8 5 5 5 4 14 6 9 5 6 8 16 14 18 18 22 17 16 20 29 35 37 48 51 49 47 49 45 60 62 49 38 40 36 31 31
6 4 5 7 5 5 0 1 6 9 4 10 6 9 3 5 8 12 11 16 24 19 21 18 20 18 16 38 40 40 47 47 47 49 50 49 45 46 47 47 39 36 35 35
9 2 6 7 12 9 18 19 14 11 6 14 19 29 15 13 7 9 18 25 28 27 20 18 14 16 16 35 34 38 43 46 44 43 54 55 52 47 45 42 41 37 38 36
4 5 6 13 20 21 22 23 7 6 7 8 17 19 13 13 9 8 19 22 24 29 23 20 14 9 24 36 35 39 41 41 47 49 55 56 51 46 46 45 45 41 38 35
3 5 8 14 20 16 18 8 2 5 9 13 18 23 11 9 15 17 21 20 22 29 25 14 10 14 29 38 37 33 32 40 49 56 58 57 54 54 49 47 44 41 38 35
2 4 4 8 12 20 7 7 2 10 11 14 17 18 9 16 21 22 32 25 21 30 21 12 14 23 37 41 36 28 22 22 60 67 68 63 59 53 49 45 42 41 37 34
3 3 4 8 11 4 3 4 9 14 21 15 18 8 11 20 30 40 42 35 29 37 21 16 17 32 44 47 38 31 31 35 44 60 67 61 54 51 48 44 42 39 34 33
5 2 5 4 7 15 4 4 8 15 30 4 5 19 25 34 31 39 45 38 35 36 18 22 25 37 51 50 46 41 38 19 49 53 64 60 55 51 48 47 42 36 36 34
5 8 2 4 5 5 3 10 23 14 7 6 22 25 25 24 11 14 14 28 33 27 15 31 38 41 47 48 51 52 46 40 27 33 38 45 48 49 47 43 38 39 36 35
6 4 4 6 5 6 5 18 20 5 7 28 38 33 29 16 17 39 27 26 27 23 35 32 46 52 51 57 59 62 59 61 43 42 46 45 45 46 41 40 41 38 37 35
4 5 3 4 4 6 16 15 4 12 35 38 42 41 39 38 34 12 25 25 29 41 31 44 57 50 50 60 60 59 55 54 54 51 48 46 44 42 41 40 38 37 36 34
3 2 4 3 5 21 22 21 26 30 33 38 40 46 41 8 21 30 31 28 32 48 46 59 58 53 52 55 55 60 57 53 51 50 49 46 42 39 37 40 40 37 32 31
4 2 3 4 2 8 25 24 32 40 38 42 41 41 10 23 24 34 37 25 33 49 54 59 57 52 48 51 53 49 51 49 49 50 48 46 45 43 41 38 34 31 30 30
4 2 3 6 6 19 4 30 35 42 40 44 44 35 28 39 32 35 34 33 43 52 51 55 53 53 50 48 51 51 48 50 52 52 50 47 44 43 41 37 32 31 27 22
4 4 1 4 12 8 16 31 30 32 34 39 37 33 41 39 40 47 37 37 50 55 52 54 51 50 49 51 50 48 49 49 52 52 49 46 46 43 40 38 37 27 25 23
Wind_Direction
273 158 233 244 223 241 255 262 269 268 282 280 289 284 283 275 274 262 268 266 260 277 283 283 296 284 209 208 202 196 183 189 187 177 175 192 199 202 197 199 206 204 208 211
346 257 247 247 253 246 249 258 269 271 270 264 272 278 286 259 261 270 271 272 275 277 269 272 281 288 226 209 210 205 206 199 189 195 191 205 198 200 199 201 202 200 211 208
230 254 276 272 282 286 277 281 289 285 289 269 289 277 271 273 257 261 265 268 275 273 270 270 266 278 240 211 208 215 205 197 195 183 189 192 192 191 196 213 209 205 208 210
271 280 248 269 269 278 282 292 291 290 292 287 187 281 263 267 267 249 251 250 257 261 261 261 267 260 264 222 211 209 212 204 208 203 200 193 192 195 200 213 210 206 203 205
286 312 288 264 262 355 300 310 299 304 298 294 234 267 276 223 256 250 251 254 260 257 260 263 259 250 260 230 213 211 215 207 201 194 201 197 194 195 199 208 204 201 200 206
290 296 244 275 67 92 23 357 311 241 154 259 203 218 267 258 258 251 241 240 250 257 261 259 259 257 256 241 217 215 212 208 210 207 203 200 196 196 198 202 199 195 195 198
327 319 324 68 348 302 35 7 319 296 229 255 188 241 262 270 291 263 246 239 248 253 257 260 257 253 250 230 219 214 210 209 208 213 210 203 204 202 201 196 194 189 189 191
322 326 358 323 303 281 263 184 183 271 238 294 68 246 252 222 246 266 251 244 252 250 254 253 255 248 243 233 221 215 208 210 205 207 205 204 202 204 201 198 191 194 193 196
296 270 302 293 283 251 276 162 226 251 261 256 235 274 284 256 260 282 272 242 245 266 249 249 245 245 244 224 214 212 216 210 207 208 212 211 200 200 199 198 195 195 192 189
235 291 286 304 328 264 201 190 337 187 255 248 255 243 235 283 278 305 315 280 256 269 301 241 230 230 235 218 211 208 213 218 213 211 196 195 197 193 196 209 201 189 188 191
188 213 279 301 220 224 324 201 179 210 230 263 288 245 217 214 225 260 270 284 298 301 299 327 259 242 224 209 205 203 210 213 208 204 207 200 189 184 195 197 194 187 190 182
270 260 272 259 273 278 256 262 238 238 223 221 261 264 201 193 246 299 293 308 336 324 327 319 289 299 218 198 205 203 205 207 205 199 189 169 182 193 183 194 193 191 179 170
187 229 293 318 351 18 105 155 231 239 237 239 265 264 326 345 331 337 340 344 332 356 329 306 274 293 198 186 198 197 205 205 207 199 193 187 173 188 179 177 176 172 163 164
151 247 229 255 279 287 286 282 276 266 248 268 249 275 268 285 317 325 321 320 320 318 332 308 280 285 224 190 191 195 199 201 201 191 192 177 179 183 175 169 165 160 159 160
154 241 234 247 266 276 271 272 267 277 266 266 284 272 298 291 288 299 304 306 312 312 325 316 290 268 202 185 188 196 194 197 196 175 174 172 173 171 166 160 155 157 158 157
186 273 258 276 278 271 271 223 245 277 273 266 264 270 298 322 312 307 304 305 302 301 319 280 271 186 180 174 162 166 181 185 188 167 166 170 168 160 156 154 154 155 159 158
247 298 295 287 299 305 277 149 336 285 292 277 270 273 321 318 307 295 291 285 281 278 313 247 225 164 153 149 144 138 162 188 173 160 156 157 154 152 151 151 152 160 158 156
204 273 266 291 316 277 97 125 308 289 296 282 267 275 298 290 285 283 273 264 258 258 280 197 178 154 139 142 143 139 123 130 121 126 141 146 149 151 151 151 159 158 157 160
199 263 282 298 300 271 144 25 320 324 305 311 337 315 308 299 291 276 259 247 238 239 249 185 156 147 146 153 151 141 142 141 121 122 130 143 151 148 152 156 158 154 156 151
309 300 232 294 290 276 79 325 332 314 267 324 329 299 294 301 291 281 260 211 212 218 211 166 139 141 142 146 152 147 143 142 138 134 137 144 150 152 157 154 150 151 149 144
312 306 244 273 262 272 358 342 324 330 291 311 304 294 294 289 268 278 287 193 188 185 164 153 136 134 134 138 145 135 134 141 160 159 150 151 152 156 152 149 151 148 144 144
307 313 316 298 283 298 3 344 351 297 298 298 301 300 300 297 302 154 154 154 163 159 162 139 133 130 136 141 139 141 142 147 156 152 152 152 154 151 150 146 146 147 145 142
293 219 293 225 264 296 325 319 314 314 307 309 310 313 310 274 121 125 127 135 149 145 125 129 134 131 133 142 144 132 139 149 149 149 152 152 149 146 146 147 146 144 143 137
254 164 257 316 242 314 321 337 329 329 325 326 333 345 80 96 102 114 121 105 113 120 120 126 128 126 125 133 141 146 145 149 147 147 148 148 147 146 145 142 140 140 138 134
237 357 301 260 316 321 318 335 334 336 351 352 2 9 68 95 97 110 103 121 106 107 112 120 121 125 126 139 133 141 145 152 152 149 147 148 148 143 139 138 129 125 117 121
177 218 321 290 322 299 298 331 337 347 350 360 360 19 73 91 97 107 101 102 107 110 120 123 126 122 124 135 137 145 152 156 151 148 148 147 146 146 144 135 124 117 110 114